User: anonymous   Login
Location: Holiday Acres Laynes 2 Mobile Home Park
(26.7249°N, 81.8671°W)
Time: 04:46:08
(UTC+00:00)
Language:

Cosmos 1943 Rocket - Orbit

View from above orbital plane
View from above orbital plane
View from above satellite
View from above satellite

Ground track
Ground track

The orbit data is extracted from the following two-line orbital elements,

1 19120U 88039B   21058.54528323  .00000107  00000-0  73911-4 0  9992
2 19120  71.0175 349.5012 0024287 275.4021  84.4334 14.19218583697846
Epoch (UTC): 27 February 2021 13:05:12
Eccentricity: 0.0024287
inclination: 71.0175°
perigee height: 810 km
apogee height: 845 km
right ascension of ascending node: 349.5012°
argument of perigee: 275.4021°
revolutions per day: 14.19218583
mean anomaly at epoch: 84.4334°
orbit number at epoch: 69784

The dashed part of the orbit path shows where the satellite is in the earth's shadow,  

DLR